User: anonymous   Login
Location: Unspecified
(0.0000°N, 0.0000°E)
Time: 23:26:05
(UTC+00:00)
Language:

USA 250 - Orbit

View from above orbital plane
View from above orbital plane
View from above satellite
View from above satellite

Ground track
Ground track

The orbit data is extracted from the following two-line orbital elements,

1 39652U 14020A   17319.51258520 0.00000000  00000-0  00000-0 0    04
2 39652   2.5361 321.2636 0003440 242.7318 117.3244  1.00270000    07
Epoch (UTC): 15 November 2017 12:18:07
Eccentricity: 0.0003440
inclination: 2.5361°
perigee height: 35772 km
apogee height: 35801 km
right ascension of ascending node: 321.2636°
argument of perigee: 242.7318°
revolutions per day: 1.00270000
mean anomaly at epoch: 117.3244°
orbit number at epoch: 0

The dashed part of the orbit path shows where the satellite is in the earth's shadow,  

DLR